Regional Weather Roundup
Issued by NWS

Home | Current Version | Previous Version | Graphics & Text | Print | Product List | Glossary On
Versions: 1 2 3 4 5 6 7 8 9 10 11 12 13 14 15 16 17 18 19 20 21 22 23 24 25 26 27 28 29 30 31 32 33 34 35 36 37 38 39 40 41 42 43 44 45 46 47 48 49 50
000
ASUS45 KPSR 171810
RWRAZ

ARIZONA HOURLY REGIONAL WEATHER ROUNDUP
NATIONAL WEATHER SERVICE PHOENIX AZ
1100 AM MST WED JAN 17 2018

NOTE: FAIR INDICATES FEW OR NO CLOUDS BELOW 12,000 FEET WITH NO
SIGNIFICANT WEATHER AND/OR OBSTRUCTIONS TO VISIBILITY.

AZZ001>003-036-171900-
NORTHWEST ARIZONA

CITY           SKY/WX    TMP DP  RH WIND       PRES   REMARKS
BULLHEAD CITY  SUNNY     64  36  34 N17G24    30.26F
KINGMAN        SUNNY     55  31  39 N6        30.32R
6HR MIN TEMP:  34; 6HR MAX TEMP:  56;

$$

AZZ004>008-015-016-018-171900-
NORTH CENTRAL ARIZONA

CITY           SKY/WX    TMP DP  RH WIND       PRES   REMARKS
GRAND CANYON   SUNNY     47  20  34 E6        30.39R
6HR MIN TEMP:  20; 6HR MAX TEMP:  48;

WILLIAMS       SUNNY     50  23  34 N6        30.36R
PRESCOTT       SUNNY     49  28  44 NW5       30.34R
6HR MIN TEMP:  30; 6HR MAX TEMP:  50;

FLAGSTAFF      SUNNY     43  19  38 NE9       30.38R
6HR MIN TEMP:  19; 6HR MAX TEMP:  43;

PAYSON         SUNNY     46  19  34 VRB6      30.33F
PAGE             N/A     44  22  41 CALM      30.41S
$$

AZZ009>014-017-171900-
NORTHEAST ARIZONA

CITY           SKY/WX    TMP DP  RH WIND       PRES   REMARKS
WINSLOW        SUNNY     42  20  41 CALM      30.40S
6HR MIN TEMP:  19; 6HR MAX TEMP:  42;

SAINT JOHNS    MOSUNNY   42  24  49 CALM      30.36S
6HR MIN TEMP:  20; 6HR MAX TEMP:  42;

WINDOW ROCK    SUNNY     41  19  41 CALM      30.36F
6HR MIN TEMP:  22; 6HR MAX TEMP:  41;

SHOW LOW       MOSUNNY   41  23  48 NE5       30.38S
$$

AZZ540-542>544-546-548-171900-
GREATER PHOENIX AREA

CITY           SKY/WX    TMP DP  RH WIND       PRES   REMARKS
PHOENIX        MOSUNNY   62  22  21 E14       30.25S
6HR MIN TEMP:  52; 6HR MAX TEMP:  62;

BUCKEYE        SUNNY     61  21  21 E16G23    30.26S
GLENDALE       MOSUNNY   63  27  25 E6        30.27F
LUKE AFB       SUNNY     61  27  27 CALM      30.25S
6HR MIN TEMP:  45; 6HR MAX TEMP:  61;

DEER VALLEY    SUNNY     63  23  21 E10       30.24S
6HR MIN TEMP:  47; 6HR MAX TEMP:  63;

SCOTTSDALE     SUNNY     62  25  24 CALM      30.27R
6HR MIN TEMP:  48; 6HR MAX TEMP:  62;

MESA-FALCON    SUNNY     63  21  20 NE15      30.26F
MESA-GATEWAY   SUNNY     61  21  21 NE5       30.27F
CHANDLER       SUNNY     61  21  21 NE6       30.26F
$$

AZZ539-553-171900-
SOUTHWEST MARICOPA COUNTY AND PINAL COUNTY

CITY           SKY/WX    TMP DP  RH WIND       PRES   REMARKS
CASA GRANDE    NOT AVBL
GILA BEND      MOSUNNY   62  20  19 E18       30.23R
6HR MIN TEMP:  53; 6HR MAX TEMP:  62;

$$

AZZ503-504-507>509-171900-
SOUTHEAST ARIZONA

CITY           SKY/WX    TMP DP  RH WIND       PRES   REMARKS
TUCSON         SUNNY     57  19  22 E16G25    30.26R
6HR MIN TEMP:  48; 6HR MAX TEMP:  57;

DAVIS-MONTHAN  SUNNY     56  20  24 SE15      30.24S
6HR MIN TEMP:  45; 6HR MAX TEMP:  56;

RYAN FIELD     SUNNY     57  21  24 E16       30.25S
NOGALES        SUNNY     56  21  25 CALM      30.24F
6HR MIN TEMP:  38; 6HR MAX TEMP:  56;

SIERRA VISTA   SUNNY     48  16  27 NE5       30.31F
6HR MIN TEMP:  29; 6HR MAX TEMP:  43;

DOUGLAS        SUNNY     43  19  38 W6        30.33F
6HR MIN TEMP:  22; 6HR MAX TEMP:  44;

SAFFORD        SUNNY     43  14  31 S12       30.41F
6HR MIN TEMP:  32; 6HR MAX TEMP:  43;

$$

AZZ532-171900-
SOUTHWEST ARIZONA

CITY           SKY/WX    TMP DP  RH WIND       PRES   REMARKS
YUMA           MOSUNNY   66  33  29 N12       30.23R
6HR MIN TEMP:  53; 6HR MAX TEMP:  67;

$$

CAZ041-043-047-048-061-525>527-560>570-171900-
SOUTHERN CALIFORNIA

CITY           SKY/WX    TMP DP  RH WIND       PRES   REMARKS
DOWNTOWN L.A.  SUNNY     67  44  43 CALM      30.17R
6HR MIN TEMP:  52; 6HR MAX TEMP:  67;

L.A. AIRPORT   PTSUNNY   67  48  50 E6        30.18R
6HR MIN TEMP:  54; 6HR MAX TEMP:  67;

SAN DIEGO      MOSUNNY   63  53  70 CALM      30.19F
6HR MIN TEMP:  53; 6HR MAX TEMP:  63;

BURBANK        SUNNY     68  41  37 W3        30.18R
6HR MIN TEMP:  50; 6HR MAX TEMP:  68;

ONTARIO        PTSUNNY   64  39  39 CALM      30.19R
6HR MIN TEMP:  48; 6HR MAX TEMP:  64;

RIVERSIDE      MOSUNNY   66  45  46 CALM      30.19S
6HR MIN TEMP:  48; 6HR MAX TEMP:  66;

PALM SPRINGS   SUNNY     70  39  32 SE3       30.24S
6HR MIN TEMP:  54; 6HR MAX TEMP:  70;

EL CENTRO NAS  MOSUNNY   68  37  32 CALM      30.25R
6HR MIN TEMP:  48; 6HR MAX TEMP:  68;

IMPERIAL       SUNNY     66  39  37 CALM      30.23R
6HR MIN TEMP:  47; 6HR MAX TEMP:  66;

BLYTHE         SUNNY     62  37  39 SE3       30.26R
6HR MIN TEMP:  47; 6HR MAX TEMP:  62;

NEEDLES        SUNNY     65  38  36 N8        30.28R
6HR MIN TEMP:  49; 6HR MAX TEMP:  65;

$$

NVZ020-UTZ003-171900-
SOUTHERN NEVADA-UTAH

CITY           SKY/WX    TMP DP  RH WIND       PRES   REMARKS
LAS VEGAS      MOSUNNY   58  36  43 N3        30.33R
6HR MIN TEMP:  46; 6HR MAX TEMP:  58;

SALT LAKE CITY PTSUNNY   42  28  57 SE3       30.44R
6HR MIN TEMP:  31; 6HR MAX TEMP:  42;

$$

NMZ009-TXZ055-171900-
NEW MEXICO-WEST TEXAS

CITY           SKY/WX    TMP DP  RH WIND       PRES   REMARKS
ALBUQUERQUE    PTSUNNY   31  14  49 SW5       30.41F WCI  26
6HR MIN TEMP:  16; 6HR MAX TEMP:  31;

EL PASO        PTSUNNY   35  10  35 CALM      30.45S
6HR MIN TEMP:  21; 6HR MAX TEMP:  36;

$$


........................KEY........................
SKY/WX - SKY CONDITION/WEATHER
TMP    - TEMPERATURE IN FAHRENHEIT
DP     - DEW POINT IN FAHRENHEIT
RH     - RELATIVE HUMIDITY IN PERCENT
WIND   - DIRECTION AND SPEED IN MILES PER HOUR (MPH)
VRB    - VARIABLE WIND DIRECTION
PRES   - MEAN SEA LEVEL PRESSURE IN INCHES OF MERCURY
         F - FALLING PRESSURE   R - RISING PRESSURE
         S - STEADY PRESSURE
VSB    - VISIBILITY IN MILES
HX     - HEAT INDEX IN FAHRENHEIT
WCI    - WIND CHILL INDEX IN FAHRENHEIT
TC     - TEMPERATURE IN CELSIUS WHICH IS ALSO KNOWN AS
         TEMPERATURE IN CENTIGRADE
AFB    - AIR FORCE BASE
         LUKE AFB IS LUKE AIR FORCE BASE
         DAVIS-MONTHAN IS DAVIS-MONTHAN AIR FORCE BASE
NAS    - NAVAL AIR STATION
         EL CENTRO NAS IS EL CENTRO NAVAL AIR STATION
N/A    - NOT AVAILABLE




USA.gov is the U.S. government's official web portal to all federal, state and local government web resources and services.